Regional Weather Roundup
Issued by NWS Cleveland, OH

Home | Current Version | Previous Version | Graphics & Text | Print | Product List | Glossary On
Versions: 1 2 3 4 5 6 7 8 9 10 11 12 13 14 15 16 17 18 19 20 21 22 23 24 25 26 27 28 29 30 31 32 33 34 35 36 37 38 39 40 41 42 43 44 45 46 47 48 49 50
000
ASUS41 KCLE 050800
RWRCLE
OHIO REGIONAL WEATHER ROUNDUP
NATIONAL WEATHER SERVICE WILMINGTON, OH
400 AM EDT SUN JUL 05 2015

NOTE: "FAIR" INDICATES FEW OR NO CLOUDS BELOW 12,000 FEET WITH NO
SIGNIFICANT WEATHER AND/OR OBSTRUCTIONS TO VISIBILITY.

OHZ001>008-015>018-024>027-034-035-043-044-050900-
   NORTHWEST OHIO

CITY           SKY/WX    TMP DP  RH WIND       PRES   REMARKS
DEFIANCE       CLEAR     61  58  90 CALM      30.07S FOG
FINDLAY        PTCLDY    62  57  83 CALM      30.06F
TOLEDO EXPRESS CLEAR     56  54  93 CALM      30.07S
TOLEDO EXEC    CLEAR     62  53  72 CALM      30.08S
LIMA           PTCLDY    60  57  89 CALM      30.07F
$$

OHZ009>014-019>023-028>033-038-089-050900-
   NORTHEAST OHIO

CITY           SKY/WX    TMP DP  RH WIND       PRES   REMARKS
CLE-HOPKINS    CLEAR     59  52  77 CALM      30.10S
CLE-LAKEFRONT  CLEAR     63  51  65 S6        30.07S
CUY CO. ARPT   NOT AVBL
LORAIN-ELYRIA  CLEAR     56  54  93 CALM      30.09S FOG
ASHTABULA      CLEAR     56  54  93 CALM      30.10F
AKRON-CANTON   PTCLDY    61  51  70 E3        30.09F
WOOSTER        NOT AVBL
MANSFIELD      MOCLDY    59  56  89 SE3       30.09F
YOUNGSTOWN     CLEAR     53  51  93 E6        30.10S
$$

OHZ042-051>053-060>062-070>072-077>081-050900-
  SOUTHWEST OHIO

CITY           SKY/WX    TMP DP  RH WIND       PRES   REMARKS
CINC-COVINGTON CLOUDY    68  60  75 E3        30.06S
CINC-LUNKEN    CLOUDY    63  61  93 CALM      30.06S FOG
HAMILTON       CLOUDY    61  59  93 CALM      30.07S FOG
DAYTON         NOT AVBL
WRIGHT-PAT AFB NOT AVBL
DAYTON GENERAL MOCLDY    63  58  83 E3        30.06F
WILMINGTON     MOCLDY    61  57  87 CALM      30.07F
$$

OHZ036-037-039>041-045>050-054>059-063>069-073>076-082>088-050900-
  CENTRAL AND SOUTHEAST OHIO

CITY           SKY/WX    TMP DP  RH WIND       PRES   REMARKS
COLUMBUS       MOCLDY    62  56  80 E5        30.07S
OSU AIRPORT    MOCLDY    60  56  86 CALM      30.07F FOG
BOLTON FIELD   NOT AVBL
RICKENBACK AFB NOT AVBL
NEWARK         MOCLDY    58  56  93 CALM      30.08S FOG
MARION         MOCLDY    60  57  89 CALM      30.08F FOG
LANCASTER      MOCLDY    57  55  93 CALM      30.08S FOG
ZANESVILLE     MOCLDY    59  56  89 CALM      30.08F FOG
NEW PHILLY     MOCLDY    56  55  97 CALM      30.10S FOG
$$


USA.gov is the U.S. government's official web portal to all federal, state and local government web resources and services.